Regional Weather Roundup
Issued by NWS

Home | Current Version | Previous Version | Graphics & Text | Print | Product List | Glossary On
Versions: 1 2 3 4 5 6 7 8 9 10 11 12 13 14 15 16 17 18 19 20 21 22 23 24 25 26 27 28 29 30 31 32 33 34 35 36 37 38 39 40 41 42 43 44 45 46 47 48 49 50
000
ASUS43 KMKX 020000
RWRWI

WISCONSIN REGIONAL WEATHER ROUNDUP
NATIONAL WEATHER SERVICE MILWAUKEE/SULLIVAN WI
700 PM CDT TUE SEP 01 2015

NOTE: "FAIR" INDICATES FEW OR NO CLOUDS BELOW 12,000 FEET WITH NO
SIGNIFICANT WEATHER AND/OR OBSTRUCTIONS TO VISIBILITY.

WIZ001-002-006>008-014>016-023>028-020100-
NORTHWEST WISCONSIN

CITY           SKY/WX    TMP DP  RH WIND       PRES   REMARKS
SUPERIOR ARPT  PTCLDY    80  72  77 CALM      29.88S HX  83
ASHLAND        MOCLDY    81  75  82 CALM      29.91R HX  87
6HR MIN TEMP:  79; 6HR MAX TEMP:  85;

HAYWARD        MOCLDY    79  73  82 S3        29.93S HX  82
6HR MIN TEMP:  79; 6HR MAX TEMP:  84;

SIREN          CLOUDY    82  72  72 CALM      29.92R HX  86
CUMBERLAND     CLOUDY    77  72  83 CALM      29.94R
RICE LAKE      CLOUDY    80  71  75 CALM      29.94S HX  83
CHETEK         CLOUDY   N/A N/A N/A CALM      29.93R
LADYSMITH      CLOUDY    79  73  80 CALM      29.96R HX  82
6HR MIN TEMP:  79; 6HR MAX TEMP:  83;

EAU CLAIRE     CLOUDY    84  74  71 CALM      29.90S HX  91
6HR MIN TEMP:  84; 6HR MAX TEMP:  87;

MENOMONIE      CLOUDY    83  74  74 CALM      29.90F HX  90
6HR MIN TEMP:  83; 6HR MAX TEMP:  89;

NEW RICHMOND   CLOUDY    80  74  80 CALM      29.91S HX  85
OSCEOLA        CLOUDY    82  73  73 CALM      29.93S HX  87
$$

WIZ003>005-009-010-017-018-020100-
NORTH CENTRAL WISCONSIN

CITY           SKY/WX    TMP DP  RH WIND       PRES   REMARKS
MANITOWISH WTR PTCLDY    76  70  82 SW5       29.96R
ARBOR VITAE    PTCLDY    79  71  76 CALM      29.96S HX  81
WOODRUFF       PTCLDY    79  71  76 CALM      29.96S HX  81
RHINELANDER    PTCLDY    78  71  79 CALM      29.98R HX  80
6HR MIN TEMP:  78; 6HR MAX TEMP:  85;

EAGLE RIVER    PTCLDY    76  65  69 SW3       29.96S
LAND O LAKES   PTCLDY    78  67  67 CALM      29.98R HX  80
PHILLIPS       CLOUDY    77  71  80 CALM      29.96S
6HR MIN TEMP:  77; 6HR MAX TEMP:  82;

TOMAHAWK       MOCLDY    79  72  79 CALM      29.97R HX  81
MEDFORD        MOCLDY    79  73  83 CALM      29.95S HX  82
MERRILL        MOCLDY    81  73  77 CALM      29.96R HX  85
$$

WIZ029-030-035-036-043>047-020100-
CENTRAL WISCONSIN

CITY           SKY/WX    TMP DP  RH WIND       PRES   REMARKS
WAUSAU         MOCLDY    81  71  71 SW5       29.93S HX  85
6HR MIN TEMP:  81; 6HR MAX TEMP:  86;

MOSINEE        NOT AVBL
MARSHFIELD     PTCLDY    81  71  71 SW5       29.95R HX  85
6HR MIN TEMP:  81; 6HR MAX TEMP:  88;

STEVENS POINT  MOCLDY    82  69  64 SW7       29.95S HX  85
WAUPACA        PTCLDY    85  72  63 CALM      29.94R HX  91
WAUTOMA        NOT AVBL
WISC RAPIDS    PTCLDY    81  70  69 S3        29.95S HX  84
6HR MIN TEMP:  81; 6HR MAX TEMP:  88;

CAMP DOUGLAS   NOT AVBL
$$

WIZ011>013-019>022-031-037>040-048>050-020100-
NORTHEAST WISCONSIN

CITY           SKY/WX    TMP DP  RH WIND       PRES   REMARKS
ANTIGO         MOCLDY    79  71  77 SW3       29.97S HX  82
SHAWANO        PTCLDY    84  70  62 CALM      29.93S HX  88
OCONTO         PTCLDY    82  74  77 CALM      29.92S HX  88
STURGEON BAY   PTCLDY    75  70  83 S6        29.96S
6HR MIN TEMP:  75; 6HR MAX TEMP:  82;

GREEN BAY      CLEAR     81  71  71 S5        29.93S HX  85
6HR MIN TEMP:  81; 6HR MAX TEMP:  88;

MANITOWOC      NOT AVBL
APPLETON       MOCLDY    81  68  65 VRB6      29.93S HX  83
CLINTONVILLE   CLEAR     81  70  69 S3        29.92F HX  84
OSHKOSH        CLEAR     79  72  79 S6        29.94S HX  82
6HR MIN TEMP:  79; 6HR MAX TEMP:  87;

$$

WIZ032>034-041-042-053>061-020100-
SOUTHWEST WISCONSIN

CITY           SKY/WX    TMP DP  RH WIND       PRES   REMARKS
LA CROSSE      MOCLDY    86  73  65 S6        29.91S HX  93
6HR MIN TEMP:  86; 6HR MAX TEMP:  90;

SPARTA         PTCLDY    84  69  61 S6        29.95R HX  87
VIROQUA          N/A     82  73  74 S6        29.97S HX  86
BOSCOBEL       PTCLDY    85  73  67 SW5       29.94S HX  91
6HR MIN TEMP:  85; 6HR MAX TEMP:  92;

PRAIRIE DU CHI PTCLDY    84  71  64 CALM      29.93S HX  89
PLATTEVILLE    CLEAR     82  75  78 SW8       29.97S HX  89
$$

WIZ056-057-062-063-064-067-068-020100-
SOUTH CENTRAL WISCONSIN

CITY           SKY/WX    TMP DP  RH WIND       PRES   REMARKS
REEDSBURG      CLEAR     82  73  73 S5        29.95R HX  88
BARABOO/DELLS  CLEAR     82  69  64 SW7       29.95S HX  86
LONE ROCK      NOT AVBL
MINERAL POINT  PTCLDY    82  72  69 S8        29.97F HX  87
MADISON        PTCLDY    84  70  62 SW5       29.95S HX  88
6HR MIN TEMP:  84; 6HR MAX TEMP:  88;

MIDDLETON      CLEAR    N/A N/A N/A SW5       29.97S
WATERTOWN      CLEAR     83  73  72 SW6       29.96S HX  89
MONROE         CLEAR     82  72  69 SW10      29.97F HX  87
JANESVILLE     CLEAR     84  72  65 S8        29.97R HX  89
$$

WIZ051-052-058>065-066-070>072-020100-
SOUTHEAST WISCONSIN

CITY           SKY/WX    TMP DP  RH WIND       PRES   REMARKS
MILWAUKEE      CLEAR     85  70  60 SW7       29.97R HX  89
6HR MIN TEMP:  85; 6HR MAX TEMP:  90;

WAUKESHA       CLEAR     81  70  69 S3        29.99R HX  84
MILWAUKEE/TIMM CLEAR     84  66  54 SW7       29.98R HX  86
RACINE         CLEAR     84  69  60 SW7       29.99S HX  88
6HR MIN TEMP:  82; 6HR MAX TEMP:  88;

BURLINGTON     CLEAR     81  70  69 S3        29.98S HX  84
KENOSHA        CLEAR     84  70  62 SW7       29.98S HX  88
6HR MIN TEMP:  84; 6HR MAX TEMP:  90;

FOND DU LAC    CLEAR     81  73  76 S5        29.95S HX  86
6HR MIN TEMP:  81; 6HR MAX TEMP:  87;

SHEBOYGAN      CLEAR     78  72  81 SE3       29.96R HAZE    HX  80
6HR MIN TEMP:  78; 6HR MAX TEMP:  88;

WEST BEND      CLEAR     81  70  69 CALM      29.97S HX  84
JUNEAU         CLEAR     82  73  74 S5        29.97S HX  87
$$

LSZ147-162-020100-
LAKE SUPERIOR

STATION/POSITION TIME  TEMP    WIND        PRES    WAVE
                       AIR SEA DIR/SP/G            HT/PER
                 (UTC) (F)     (DEG/KT/KT) (MB)    (FT/S)
W MID LAKE BUOY  2250   61 57  240/  4/  6 1011.8S   0
DEVILS ISLAND    2300   74     240/  9/ 10 1011.8R
PORT WING        2340   81      CALM  /  1 1012.2S
SAXON HARBOR     2300   78        CALM     1011.9S
$$

LMZ867-665-643>646-020100-
LAKE MICHIGAN

STATION/POSITION TIME  TEMP    WIND        PRES    WAVE
                       AIR SEA DIR/SP/G            HT/PER
                 (UTC) (F)     (DEG/KT/KT) (MB)    (FT/S)
CHAMBERS ISLAND  2300   80     170/  4/ 10 1012.9S
S GREEN BAY BUOY 2300   74 67  200/  6/  6 1014.8
N MID LAKE BUOY  2250   67 65  210/ 14/ 16 1013.5S   2/ 3
NORTHPORT PIER   2300   69     160/  6/  9 1013.2S
SISTER BAY       2319   74     150/  8/ 11   N/A
ALGOMA LAKESHORE 2214          220/  5/  7   N/A
KEWAUNEE LAKESHO 2300   53     170/  7/  9 1013.1S
SHEBOYGAN LAKESH 2300   69     180/ 19/ 20 1014.3S
PORT WASHINGTON  2340   66     190/  3/  5 1015.2R
ATWATER BUOY     2300   60 51  150/ 10/ 12 1015.8S
MILWAUKEE LAKESH 2340   85     220/  8/  9   N/A
S MID LAKE BUOY  2350   74 70  180/ 12/ 12 1014.8F   1/ 3
KENOSHA   LAKESH 2300   72     200/  7/ 10 1014.6S
$$

TC  - TEMPERATURE IN CELSIUS
VSB - VISIBILITY IN STATUTE MILES
WCI - WIND CHILL INDEX
HX  - HEAT INDEX



USA.gov is the U.S. government's official web portal to all federal, state and local government web resources and services.